Time,TemperatureF,DewpointF,PressureIn,WindDirection,WindDirectionDegrees,WindSpeedMPH,WindSpeedGustMPH,Humidity,HourlyPrecipIn,Conditions,Clouds,dailyrainin,SoftwareType,DateUTC
2013-11-25 00:01:00,23.0,18.0,-100.00,SSE,148,6.0,9.0,81,0.00,,,0.00,,2013-11-25 07:01:00,
2013-11-25 00:21:00,25.0,19.0,-100.00,ESE,109,7.0,9.0,79,0.00,,,0.00,,2013-11-25 07:21:00,
2013-11-25 00:32:00,25.0,19.0,-100.00,ESE,109,7.0,9.0,79,0.00,,,0.00,,2013-11-25 07:32:00,
2013-11-25 00:52:00,23.0,19.0,-100.00,SE,128,7.0,9.0,83,0.00,,,0.00,,2013-11-25 07:52:00,
2013-11-25 01:02:00,23.0,19.0,-100.00,SE,128,7.0,9.0,83,0.00,,,0.00,,2013-11-25 08:02:00,
2013-11-25 01:21:00,22.0,19.0,-100.00,SE,136,6.0,8.0,88,0.00,,,0.00,,2013-11-25 08:21:00,
2013-11-25 01:32:00,22.0,19.0,-100.00,SE,136,6.0,8.0,88,0.00,,,0.00,,2013-11-25 08:32:00,
2013-11-25 01:52:00,22.0,18.0,-100.00,SE,143,5.0,7.0,86,0.00,,,0.00,,2013-11-25 08:52:00,
2013-11-25 02:02:00,22.0,18.0,-100.00,SE,143,5.0,7.0,86,0.00,,,0.00,,2013-11-25 09:02:00,
2013-11-25 02:21:00,22.0,18.0,-100.00,SE,140,6.0,7.0,86,0.00,,,0.00,,2013-11-25 09:21:00,
2013-11-25 02:33:00,22.0,18.0,-100.00,SE,140,6.0,7.0,86,0.00,,,0.00,,2013-11-25 09:33:00,
2013-11-25 02:53:00,21.0,18.0,-100.00,ESE,121,5.0,6.0,88,0.00,,,0.00,,2013-11-25 09:53:00,
2013-11-25 03:03:00,21.0,18.0,-100.00,ESE,121,5.0,6.0,88,0.00,,,0.00,,2013-11-25 10:03:00,
2013-11-25 03:23:00,22.0,19.0,-100.00,ESE,119,7.0,8.0,88,0.00,,,0.00,,2013-11-25 10:23:00,
2013-11-25 03:34:00,22.0,19.0,-100.00,ESE,119,7.0,8.0,88,0.00,,,0.00,,2013-11-25 10:34:00,
2013-11-25 03:53:00,21.0,19.0,-100.00,ESE,121,6.0,6.0,90,0.00,,,0.00,,2013-11-25 10:53:00,
2013-11-25 04:02:00,21.0,19.0,-100.00,ESE,121,6.0,6.0,90,0.00,,,0.00,,2013-11-25 11:02:00,
2013-11-25 04:22:00,21.0,18.0,-100.00,ESE,117,7.0,8.0,88,0.00,,,0.00,,2013-11-25 11:22:00,
2013-11-25 04:33:00,21.0,18.0,-100.00,ESE,117,7.0,8.0,88,0.00,,,0.00,,2013-11-25 11:33:00,
2013-11-25 04:52:00,22.0,18.0,-100.00,ESE,116,6.0,7.0,87,0.00,,,0.00,,2013-11-25 11:52:00,
2013-11-25 05:02:00,22.0,18.0,-100.00,ESE,116,6.0,7.0,87,0.00,,,0.00,,2013-11-25 12:02:00,
2013-11-25 05:21:00,21.0,17.0,-100.00,East,100,2.0,4.0,86,0.00,,,0.00,,2013-11-25 12:21:00,
2013-11-25 05:32:00,21.0,17.0,-100.00,East,100,2.0,4.0,86,0.00,,,0.00,,2013-11-25 12:32:00,
2013-11-25 05:52:00,21.0,18.0,-100.00,ESE,120,6.0,6.0,87,0.00,,,0.00,,2013-11-25 12:52:00,
2013-11-25 06:01:00,21.0,18.0,-100.00,ESE,120,6.0,6.0,87,0.00,,,0.00,,2013-11-25 13:01:00,
2013-11-25 06:21:00,21.0,18.0,-100.00,SE,127,5.0,6.0,89,0.00,,,0.00,,2013-11-25 13:21:00,
2013-11-25 06:32:00,21.0,18.0,-100.00,SE,127,5.0,6.0,89,0.00,,,0.00,,2013-11-25 13:32:00,
2013-11-25 06:52:00,21.0,18.0,-100.00,ESE,119,6.0,8.0,90,0.00,,,0.00,,2013-11-25 13:52:00,
2013-11-25 07:01:00,21.0,18.0,-100.00,ESE,119,6.0,8.0,90,0.00,,,0.00,,2013-11-25 14:01:00,
2013-11-25 07:22:00,20.0,18.0,-100.00,SE,126,6.0,7.0,90,0.00,,,0.00,,2013-11-25 14:22:00,
2013-11-25 07:32:00,20.0,18.0,-100.00,SE,126,6.0,7.0,90,0.00,,,0.00,,2013-11-25 14:32:00,
2013-11-25 07:52:00,20.0,18.0,-100.00,SE,131,6.0,6.0,92,0.00,,,0.00,,2013-11-25 14:52:00,
2013-11-25 08:02:00,20.0,18.0,-100.00,SE,131,6.0,6.0,92,0.00,,,0.00,,2013-11-25 15:02:00,
2013-11-25 08:21:00,20.0,18.0,-100.00,SE,131,6.0,7.0,91,0.00,,,0.00,,2013-11-25 15:21:00,
2013-11-25 08:33:00,20.0,18.0,-100.00,SE,131,6.0,7.0,91,0.00,,,0.00,,2013-11-25 15:33:00,
2013-11-25 08:54:00,20.0,18.0,-100.00,ESE,121,5.0,6.0,92,0.00,,,0.00,,2013-11-25 15:54:00,
2013-11-25 09:03:00,20.0,18.0,-100.00,ESE,121,5.0,6.0,92,0.00,,,0.00,,2013-11-25 16:03:00,
2013-11-25 09:23:00,22.0,19.0,-100.00,SE,126,5.0,7.0,89,0.00,,,0.00,,2013-11-25 16:23:00,
2013-11-25 09:33:00,22.0,19.0,-100.00,SE,126,5.0,7.0,89,0.00,,,0.00,,2013-11-25 16:33:00,
2013-11-25 09:52:00,24.0,19.0,-100.00,ESE,123,7.0,9.0,83,0.00,,,0.00,,2013-11-25 16:52:00,
2013-11-25 10:03:00,24.0,19.0,-100.00,ESE,123,7.0,9.0,83,0.00,,,0.00,,2013-11-25 17:03:00,
2013-11-25 10:22:00,25.0,20.0,-100.00,ESE,121,6.0,9.0,80,0.00,,,0.00,,2013-11-25 17:22:00,
2013-11-25 10:33:00,25.0,20.0,-100.00,ESE,121,6.0,9.0,80,0.00,,,0.00,,2013-11-25 17:33:00,
2013-11-25 10:52:00,27.0,20.0,-100.00,ESE,107,6.0,8.0,75,0.00,,,0.00,,2013-11-25 17:52:00,
2013-11-25 11:02:00,27.0,20.0,-100.00,ESE,107,6.0,8.0,75,0.00,,,0.00,,2013-11-25 18:02:00,
2013-11-25 11:21:00,28.0,20.0,-100.00,SE,130,9.0,11.0,73,0.00,,,0.00,,2013-11-25 18:21:00,
2013-11-25 11:33:00,28.0,20.0,-100.00,SE,130,9.0,11.0,73,0.00,,,0.00,,2013-11-25 18:33:00,
2013-11-25 11:52:00,29.0,22.0,-100.00,SE,126,7.0,8.0,73,0.00,,,0.00,,2013-11-25 18:52:00,
2013-11-25 12:02:00,29.0,22.0,-100.00,SE,126,7.0,8.0,73,0.00,,,0.00,,2013-11-25 19:02:00,
2013-11-25 12:21:00,31.0,20.0,-100.00,ESE,121,7.0,9.0,66,0.00,,,0.00,,2013-11-25 19:21:00,
2013-11-25 12:32:00,31.0,20.0,-100.00,ESE,121,7.0,9.0,66,0.00,,,0.00,,2013-11-25 19:32:00,
2013-11-25 12:52:00,32.0,21.0,-100.00,ESE,116,9.0,11.0,64,0.00,,,0.00,,2013-11-25 19:52:00,
2013-11-25 13:01:00,32.0,21.0,-100.00,ESE,116,9.0,11.0,64,0.00,,,0.00,,2013-11-25 20:01:00,
2013-11-25 13:21:00,33.0,21.0,-100.00,SE,126,8.0,11.0,63,0.00,,,0.00,,2013-11-25 20:21:00,
2013-11-25 13:32:00,33.0,21.0,-100.00,SE,126,8.0,11.0,63,0.00,,,0.00,,2013-11-25 20:32:00,
2013-11-25 13:52:00,34.0,22.0,-100.00,ESE,120,7.0,9.0,62,0.00,,,0.00,,2013-11-25 20:52:00,
2013-11-25 14:01:00,34.0,22.0,-100.00,ESE,120,7.0,9.0,62,0.00,,,0.00,,2013-11-25 21:01:00,
2013-11-25 14:22:00,35.0,23.0,-100.00,SE,140,7.0,9.0,61,0.00,,,0.00,,2013-11-25 21:22:00,
2013-11-25 14:33:00,35.0,23.0,-100.00,SE,140,7.0,9.0,61,0.00,,,0.00,,2013-11-25 21:33:00,
2013-11-25 14:53:00,34.0,23.0,-100.00,SE,128,5.0,7.0,65,0.00,,,0.00,,2013-11-25 21:53:00,
2013-11-25 15:03:00,34.0,23.0,-100.00,SE,128,5.0,7.0,65,0.00,,,0.00,,2013-11-25 22:03:00,
2013-11-25 15:23:00,33.0,22.0,-100.00,SE,144,7.0,8.0,65,0.00,,,0.00,,2013-11-25 22:23:00,
2013-11-25 15:33:00,33.0,22.0,-100.00,SE,144,7.0,8.0,65,0.00,,,0.00,,2013-11-25 22:33:00,
2013-11-25 15:53:00,33.0,23.0,-100.00,SE,141,6.0,8.0,66,0.00,,,0.00,,2013-11-25 22:53:00,
2013-11-25 16:02:00,33.0,23.0,-100.00,SE,141,6.0,8.0,66,0.00,,,0.00,,2013-11-25 23:02:00,
2013-11-25 16:22:00,32.0,23.0,-100.00,SE,137,4.0,5.0,71,0.00,,,0.00,,2013-11-25 23:22:00,
2013-11-25 16:33:00,32.0,23.0,-100.00,SE,137,4.0,5.0,71,0.00,,,0.00,,2013-11-25 23:33:00,
2013-11-25 16:52:00,31.0,24.0,-100.00,ESE,123,5.0,6.0,72,0.00,,,0.00,,2013-11-25 23:52:00,
2013-11-25 17:01:00,31.0,24.0,-100.00,ESE,123,5.0,6.0,72,0.00,,,0.00,,2013-11-26 00:01:00,
2013-11-25 17:21:00,32.0,22.0,-100.00,ESE,120,6.0,6.0,67,0.00,,,0.00,,2013-11-26 00:21:00,
2013-11-25 17:32:00,32.0,22.0,-100.00,ESE,120,6.0,6.0,67,0.00,,,0.00,,2013-11-26 00:32:00,
2013-11-25 17:52:00,32.0,23.0,-100.00,ESE,116,5.0,6.0,68,0.00,,,0.00,,2013-11-26 00:52:00,
2013-11-25 18:01:00,32.0,23.0,-100.00,ESE,116,5.0,6.0,68,0.00,,,0.00,,2013-11-26 01:01:00,
2013-11-25 18:21:00,30.0,22.0,-100.00,ESE,120,5.0,6.0,72,0.00,,,0.00,,2013-11-26 01:21:00,
2013-11-25 18:32:00,30.0,22.0,-100.00,ESE,120,5.0,6.0,72,0.00,,,0.00,,2013-11-26 01:32:00,
2013-11-25 18:52:00,30.0,23.0,-100.00,ESE,110,4.0,4.0,75,0.00,,,0.00,,2013-11-26 01:52:00,
2013-11-25 19:01:00,30.0,23.0,-100.00,ESE,110,4.0,4.0,75,0.00,,,0.00,,2013-11-26 02:01:00,
2013-11-25 19:22:00,30.0,22.0,-100.00,ESE,114,3.0,5.0,71,0.00,,,0.00,,2013-11-26 02:22:00,
2013-11-25 19:32:00,30.0,22.0,-100.00,ESE,114,3.0,5.0,71,0.00,,,0.00,,2013-11-26 02:32:00,
2013-11-25 19:52:00,31.0,22.0,-100.00,SE,128,5.0,5.0,71,0.00,,,0.00,,2013-11-26 02:52:00,
2013-11-25 20:01:00,31.0,22.0,-100.00,SE,128,5.0,5.0,71,0.00,,,0.00,,2013-11-26 03:01:00,
2013-11-25 20:22:00,33.0,23.0,-100.00,SE,128,5.0,5.0,67,0.00,,,0.00,,2013-11-26 03:22:00,
2013-11-25 20:33:00,33.0,23.0,-100.00,SE,128,5.0,5.0,67,0.00,,,0.00,,2013-11-26 03:33:00,
2013-11-25 20:54:00,31.0,22.0,-100.00,ESE,121,6.0,6.0,70,0.00,,,0.00,,2013-11-26 03:54:00,
2013-11-25 21:03:00,31.0,22.0,-100.00,ESE,121,6.0,6.0,70,0.00,,,0.00,,2013-11-26 04:03:00,
2013-11-25 21:23:00,31.0,23.0,-100.00,SE,124,6.0,7.0,70,0.00,,,0.00,,2013-11-26 04:23:00,
2013-11-25 21:34:00,31.0,23.0,-100.00,SE,124,6.0,7.0,70,0.00,,,0.00,,2013-11-26 04:34:00,
2013-11-25 21:53:00,31.0,23.0,-100.00,ESE,121,6.0,8.0,73,0.00,,,0.00,,2013-11-26 04:53:00,
2013-11-25 22:02:00,31.0,23.0,-100.00,ESE,121,6.0,8.0,73,0.00,,,0.00,,2013-11-26 05:02:00,
2013-11-25 22:23:00,29.0,24.0,-100.00,SE,124,6.0,7.0,78,0.00,,,0.00,,2013-11-26 05:23:00,
2013-11-25 22:33:00,29.0,24.0,-100.00,SE,124,6.0,7.0,78,0.00,,,0.00,,2013-11-26 05:33:00,
2013-11-25 22:53:00,27.0,24.0,-100.00,SE,128,6.0,6.0,87,0.00,,,0.00,,2013-11-26 05:53:00,
2013-11-25 23:02:00,27.0,24.0,-100.00,SE,128,6.0,6.0,87,0.00,,,0.00,,2013-11-26 06:02:00,
2013-11-25 23:22:00,27.0,24.0,-100.00,ESE,121,8.0,9.0,87,0.00,,,0.00,,2013-11-26 06:22:00,
2013-11-25 23:32:00,27.0,24.0,-100.00,ESE,121,8.0,9.0,87,0.00,,,0.00,,2013-11-26 06:32:00,
2013-11-25 23:52:00,26.0,23.0,-100.00,ESE,123,7.0,9.0,88,0.00,,,0.00,,2013-11-26 06:52:00,